Skip Page Navigation
NASA JPL Caltech
NASA Logo - Jet Propulsion Laboratory + View the NASA Portal
+ Center for Near-Earth Object Studies
JPL Home Earth Solar System Stars & Galaxies Technology
JPL Solar System Dynamics
BODIES ORBITS EPHEMERIDES TOOLS PHYSICAL DATA DISCOVERY FAQ SITE MAP
JPL Small-Body Database Browser
Search: [ help ]  
150693 (2001 OH95)
Classification: Main-belt Asteroid          SPK-ID: 2150693
Ephemeris | Orbit Diagram | Orbital Elements | Mission Design | Physical Parameters | Discovery Circumstances | Close-Approach Data ]

[ show orbit diagram ]
Orbital Elements at Epoch 2459200.5 (2020-Dec-17.0) TDB
Reference: JPL 17 (heliocentric ecliptic J2000)
 Element Value Uncertainty (1-sigma)   Units 
e .179232526973647 3.3472e-08  
a 2.308710778480902 1.0281e-08 au
q 1.894914711602474 7.6404e-08 au
i 3.369375997925865 3.9308e-06 deg
node 358.8145415113457 7.6461e-05 deg
peri 335.2943895980708 7.7392e-05 deg
M 165.6995373420929 1.3279e-05 deg
tp 2458610.745154675519
(2019-May-07.24515468)
4.6072e-05 TDB
period 1281.30559518997
3.51
8.5584e-06
2.343e-08
d
yr
n .280963418369078 1.8767e-09 deg/d
Q 2.72250684535933 1.2123e-08 au
  Orbit Determination Parameters
   # obs. used (total)      374  
   data-arc span      7170 days (19.63 yr)  
   first obs. used      2001-07-19  
   last obs. used      2021-03-06  
   planetary ephem.      DE441  
   SB-pert. ephem.      SB441-N16  
   condition code      0  
   norm. resid. RMS      .53889  
   source      ORB  
   producer      Otto Matic  
   solution date      2021-Apr-13 19:19:38  

Additional Information
 Earth MOID = .88372 au 
 Jupiter MOID = 2.64149 au 
 T_jup = 3.562 
[ show covariance matrix ]

Ephemeris | Orbit Diagram | Orbital Elements | Mission Design | Physical Parameters | Discovery Circumstances | Close-Approach Data ]

Physical Parameter Table
Parameter Symbol Value Units Sigma Reference Notes
absolute magnitude H 16.9   n/a MPO502900  
diameter diameter 2.654 km 0.817 urn:nasa:pds:neowise_diameters_albedos::2.0[mainbelt] (http://adsabs.harvard.edu/abs/2011ApJ...741...68M)  
geometric albedo albedo 0.048   0.024 urn:nasa:pds:neowise_diameters_albedos::2.0[mainbelt] (http://adsabs.harvard.edu/abs/2011ApJ...741...68M)  

150693 (2001 OH95)          Discovered 2001-Jul-30 by NEAT at Palomar
Reference: 20070303/Numbers.arcLast Updated: 2007-03-07

[ show close-approach data ]
Alternate Designations
 2001 OH95 = 2005 UT20 
Ephemeris | Orbit Diagram | Orbital Elements | Mission Design | Physical Parameters | Discovery Circumstances | Close-Approach Data ]
ABOUT SSD CREDITS/AWARDS PRIVACY/COPYRIGHT GLOSSARY LINKS
FirstGov 2021-Apr-15 14:33 UT
(server date/time)  
NASA Home Page
Site Manager:   Ryan S. Park
Webmaster  Alan B. Chamberlin